Location: Del Amo
(33.8464°N, 118.2104°W)
Time: 08:31:47
(UTC+00:00)

Transit 2A - Visible Passes

Search period start: 19 September 2024 00:00
Search period end: 29 September 2024 00:00
Orbit: 590 x 960 km, 66.7° (Epoch: 18 September)

Date Brightness Start Highest point End Pass type
(mag) Time Alt. Az. Time Alt. Az. Time Alt. Az.
19 Sep 8.5 02:12:26 10° WSW 02:17:29 28° NW 02:22:50 10° N visible
21 Sep 9.4 02:49:59 10° NW 02:50:50 10° NW 02:51:42 10° NNW visible
22 Sep 9.0 02:11:36 10° W 02:14:57 15° NW 02:18:24 10° NNW visible
